| time (UTC) | temp F | wind direction | speed MPH | gust MPH | rain 1hr in | rain 24hr in | rain mn in | humidity % | barometer mb |
| 20260507234503 | 76 | 246 | 3.0 | 7.0 | 0.00 | 0.00 | 0.00 | 59 | 1011.4 |
| 20260507233624 | 76 | 251 | 3.0 | 7.0 | 0.00 | 0.00 | 0.00 | 59 | 1011.5 |
| 20260507232704 | 76 | 262 | 3.0 | 7.0 | 0.00 | 0.00 | 0.00 | 59 | 1011.4 |
| 20260507231803 | 76 | 253 | 3.0 | 8.0 | 0.00 | 0.00 | 0.00 | 58 | 1011.3 |
| 20260507230903 | 77 | 241 | 4.0 | 8.0 | 0.00 | 0.00 | 0.00 | 57 | 1011.4 |
| 20260507230005 | 77 | 243 | 5.0 | 9.0 | 0.00 | 0.00 | 0.00 | 59 | 1011.4 |
| 20260507225403 | 77 | 250 | 4.0 | 9.0 | 0.00 | 0.00 | 0.00 | 57 | 1011.4 |
| 20260507224504 | 77 | 249 | 4.0 | 9.0 | 0.00 | 0.00 | 0.00 | 56 | 1011.4 |
| 20260507223624 | 78 | 243 | 5.0 | 11.0 | 0.00 | 0.00 | 0.00 | 56 | 1011.4 |
| 20260507222724 | 78 | 238 | 5.0 | 10.0 | 0.00 | 0.00 | 0.00 | 56 | 1011.4 |
| 20260507221803 | 78 | 245 | 4.0 | 9.0 | 0.00 | 0.00 | 0.00 | 56 | 1011.4 |
| 20260507220903 | 78 | 251 | 4.0 | 9.0 | 0.00 | 0.00 | 0.00 | 55 | 1011.5 |
| 20260507220004 | 78 | 248 | 5.0 | 11.0 | 0.00 | 0.00 | 0.00 | 55 | 1011.6 |
| 20260507215403 | 79 | 251 | 5.0 | 11.0 | 0.00 | 0.00 | 0.00 | 54 | 1011.7 |
| 20260507214503 | 80 | 246 | 5.0 | 9.0 | 0.00 | 0.00 | 0.00 | 53 | 1011.8 |
| 20260507213603 | 80 | 245 | 5.0 | 10.0 | 0.00 | 0.00 | 0.00 | 53 | 1011.9 |
| 20260507212703 | 80 | 237 | 5.0 | 11.0 | 0.00 | 0.00 | 0.00 | 53 | 1011.9 |
| 20260507211804 | 80 | 239 | 5.0 | 10.0 | 0.00 | 0.00 | 0.00 | 52 | 1012.0 |
| 20260507210903 | 80 | 240 | 5.0 | 10.0 | 0.00 | 0.00 | 0.00 | 51 | 1012.1 |
| 20260507210003 | 81 | 248 | 3.0 | 7.0 | 0.00 | 0.00 | 0.00 | 49 | 1012.1 |
| 20260507205404 | 80 | 252 | 4.0 | 9.0 | 0.00 | 0.00 | 0.00 | 50 | 1012.2 |
| 20260507204505 | 81 | 255 | 4.0 | 9.0 | 0.00 | 0.00 | 0.00 | 48 | 1012.3 |
| 20260507203603 | 81 | 255 | 2.0 | 6.0 | 0.00 | 0.00 | 0.00 | 49 | 1012.3 |
| 20260507202703 | 80 | 255 | 3.0 | 8.0 | 0.00 | 0.00 | 0.00 | 47 | 1012.3 |
| 20260507201803 | 79 | 246 | 3.0 | 7.0 | 0.00 | 0.00 | 0.00 | 48 | 1012.4 |
| 20260507200903 | 79 | 246 | 4.0 | 9.0 | 0.00 | 0.00 | 0.00 | 48 | 1012.5 |
| 20260507200025 | 78 | 242 | 3.0 | 9.0 | 0.00 | 0.00 | 0.00 | 48 | 1012.5 |
| 20260507195403 | 78 | 241 | 4.0 | 7.0 | 0.00 | 0.00 | 0.00 | 48 | 1012.6 |
| 20260507194503 | 78 | 236 | 4.0 | 10.0 | 0.00 | 0.00 | 0.00 | 50 | 1012.6 |
| 20260507193603 | 78 | 239 | 4.0 | 10.0 | 0.00 | 0.00 | 0.00 | 51 | 1012.7 |
| 20260507192703 | 77 | 252 | 3.0 | 6.0 | 0.00 | 0.00 | 0.00 | 52 | 1012.8 |
| 20260507191803 | 77 | 258 | 2.0 | 8.0 | 0.00 | 0.00 | 0.00 | 52 | 1012.9 |
| 20260507190903 | 76 | 250 | 4.0 | 9.0 | 0.00 | 0.00 | 0.00 | 54 | 1013.0 |
| 20260507190004 | 75 | 241 | 4.0 | 8.0 | 0.00 | 0.00 | 0.00 | 54 | 1013.2 |
| 20260507185403 | 75 | 246 | 4.0 | 7.0 | 0.00 | 0.00 | 0.00 | 56 | 1013.2 |
| 20260507184503 | 75 | 236 | 3.0 | 7.0 | 0.00 | 0.00 | 0.00 | 56 | 1013.3 |
| 20260507183624 | 75 | 246 | 3.0 | 7.0 | 0.00 | 0.00 | 0.00 | 55 | 1013.4 |
| 20260507182704 | 75 | 238 | 3.0 | 9.0 | 0.00 | 0.00 | 0.00 | 56 | 1013.4 |
| 20260507181804 | 74 | 222 | 2.0 | 6.0 | 0.00 | 0.00 | 0.00 | 55 | 1013.4 |
| 20260507180903 | 74 | 230 | 4.0 | 6.0 | 0.00 | 0.00 | 0.00 | 55 | 1013.4 |
| 20260507180003 | 74 | 240 | 1.0 | 5.0 | 0.00 | 0.00 | 0.00 | 55 | 1013.5 |
| 20260507175405 | 73 | 231 | 2.0 | 5.0 | 0.00 | 0.00 | 0.00 | 57 | 1013.6 |
| 20260507174503 | 73 | 248 | 1.0 | 4.0 | 0.00 | 0.00 | 0.00 | 57 | 1013.7 |
| 20260507173625 | 72 | 241 | 1.0 | 5.0 | 0.00 | 0.00 | 0.00 | 60 | 1013.8 |
| 20260507172704 | 71 | 237 | 2.0 | 6.0 | 0.00 | 0.00 | 0.00 | 61 | 1013.8 |
| 20260507171824 | 70 | 244 | 0.0 | 4.0 | 0.00 | 0.00 | 0.00 | 63 | 1013.9 |
| 20260507170924 | 69 | 237 | 1.0 | 6.0 | 0.00 | 0.00 | 0.00 | 64 | 1014.0 |
| 20260507170025 | 69 | 249 | 0.0 | 4.0 | 0.00 | 0.00 | 0.00 | 64 | 1014.1 |
| 20260507165424 | 68 | 238 | 0.0 | 3.0 | 0.00 | 0.00 | 0.00 | 66 | 1014.1 |
| 20260507164503 | 68 | 247 | 1.0 | 5.0 | 0.00 | 0.00 | 0.00 | 65 | 1014.2 |
| 20260507163603 | 67 | 0 | 0.0 | 0.0 | 0.00 | 0.00 | 0.00 | 68 | 1014.2 |
| 20260507162703 | 66 | 276 | 0.0 | 2.0 | 0.00 | 0.00 | 0.00 | 69 | 1014.3 |
| 20260507161803 | 65 | 223 | 2.0 | 5.0 | 0.00 | 0.00 | 0.00 | 71 | 1014.4 |
| 20260507160903 | 64 | 232 | 1.0 | 4.0 | 0.00 | 0.00 | 0.00 | 72 | 1014.5 |
| 20260507160024 | 63 | 226 | 0.0 | 2.0 | 0.00 | 0.00 | 0.00 | 74 | 1014.4 |
| 20260507155403 | 63 | 226 | 0.0 | 3.0 | 0.00 | 0.00 | 0.00 | 76 | 1014.4 |
| 20260507154504 | 62 | 228 | 0.0 | 1.0 | 0.00 | 0.00 | 0.00 | 79 | 1014.3 |
| 20260507153603 | 61 | 258 | 0.0 | 1.0 | 0.00 | 0.00 | 0.00 | 81 | 1014.4 |
| 20260507152724 | 60 | 0 | 0.0 | 0.0 | 0.00 | 0.00 | 0.00 | 82 | 1014.4 |
| 20260507151804 | 60 | 0 | 0.0 | 0.0 | 0.00 | 0.00 | 0.00 | 84 | 1014.3 |
| 20260507150903 | 59 | 0 | 0.0 | 0.0 | 0.00 | 0.00 | 0.00 | 87 | 1014.2 |
| 20260507150004 | 58 | 0 | 0.0 | 0.0 | 0.00 | 0.00 | 0.00 | 88 | 1014.3 |
| 20260507145403 | 57 | 0 | 0.0 | 0.0 | 0.00 | 0.00 | 0.00 | 89 | 1014.2 |
| 20260507144503 | 56 | 0 | 0.0 | 0.0 | 0.00 | 0.00 | 0.00 | 90 | 1014.3 |
| 20260507143604 | 55 | 0 | 0.0 | 0.0 | 0.00 | 0.00 | 0.00 | 91 | 1014.2 |
| 20260507142703 | 54 | 0 | 0.0 | 0.0 | 0.00 | 0.00 | 0.00 | 92 | 1014.2 |
| 20260507141826 | 54 | 0 | 0.0 | 0.0 | 0.00 | 0.00 | 0.00 | 92 | 1014.3 |
| 20260507140924 | 53 | 0 | 0.0 | 0.0 | 0.00 | 0.00 | 0.00 | 92 | 1014.2 |
| 20260507140003 | 52 | 0 | 0.0 | 0.0 | 0.00 | 0.00 | 0.00 | 92 | 1014.2 |
| 20260507135403 | 52 | 0 | 0.0 | 0.0 | 0.00 | 0.00 | 0.00 | 92 | 1014.3 |
| 20260507134503 | 52 | 0 | 0.0 | 0.0 | 0.00 | 0.00 | 0.00 | 94 | 1014.2 |
| 20260507133604 | 47 | 0 | 0.0 | 0.0 | 0.00 | 0.00 | 0.00 | 92 | 1014.3 |
| 20260507132703 | 47 | 0 | 0.0 | 0.0 | 0.00 | 0.00 | 0.00 | 92 | 1014.2 |
| 20260507131803 | 47 | 0 | 0.0 | 0.0 | 0.00 | 0.00 | 0.00 | 92 | 1014.2 |
| 20260507130903 | 47 | 0 | 0.0 | 0.0 | 0.00 | 0.00 | 0.00 | 92 | 1014.1 |
| 20260507130003 | 47 | 0 | 0.0 | 0.0 | 0.00 | 0.00 | 0.00 | 92 | 1014.0 |
| 20260507125404 | 47 | 0 | 0.0 | 0.0 | 0.00 | 0.00 | 0.00 | 92 | 1013.9 |
| 20260507124503 | 47 | 0 | 0.0 | 0.0 | 0.00 | 0.00 | 0.00 | 92 | 1013.7 |
| 20260507123604 | 47 | 0 | 0.0 | 0.0 | 0.00 | 0.00 | 0.00 | 92 | 1013.9 |
| 20260507122705 | 47 | 0 | 0.0 | 0.0 | 0.00 | 0.00 | 0.00 | 92 | 1013.6 |
| 20260507121804 | 47 | 0 | 0.0 | 0.0 | 0.00 | 0.00 | 0.00 | 92 | 1013.8 |
| 20260507120924 | 47 | 0 | 0.0 | 0.0 | 0.00 | 0.00 | 0.00 | 92 | 1013.7 |
| 20260507120003 | 47 | 0 | 0.0 | 0.0 | 0.00 | 0.00 | 0.00 | 92 | 1013.7 |
| 20260507115403 | 48 | 0 | 0.0 | 0.0 | 0.00 | 0.00 | 0.00 | 92 | 1013.7 |
| 20260507114503 | 48 | 0 | 0.0 | 0.0 | 0.00 | 0.00 | 0.00 | 92 | 1013.8 |
| 20260507113604 | 49 | 0 | 0.0 | 0.0 | 0.00 | 0.00 | 0.00 | 93 | 1013.6 |
| 20260507112703 | 48 | 0 | 0.0 | 0.0 | 0.00 | 0.00 | 0.00 | 92 | 1013.7 |
| 20260507111803 | 49 | 0 | 0.0 | 0.0 | 0.00 | 0.00 | 0.00 | 92 | 1013.6 |
| 20260507110903 | 49 | 0 | 0.0 | 0.0 | 0.00 | 0.00 | 0.00 | 92 | 1013.8 |
| 20260507110003 | 49 | 0 | 0.0 | 0.0 | 0.00 | 0.00 | 0.00 | 92 | 1013.9 |
| 20260507105403 | 49 | 0 | 0.0 | 0.0 | 0.00 | 0.00 | 0.00 | 92 | 1013.8 |
| 20260507104524 | 49 | 0 | 0.0 | 0.0 | 0.00 | 0.00 | 0.00 | 92 | 1013.9 |
| 20260507103603 | 49 | 0 | 0.0 | 0.0 | 0.00 | 0.00 | 0.00 | 92 | 1014.0 |
| 20260507102703 | 49 | 0 | 0.0 | 0.0 | 0.00 | 0.00 | 0.00 | 92 | 1014.1 |
| 20260507101824 | 49 | 0 | 0.0 | 0.0 | 0.00 | 0.00 | 0.00 | 92 | 1014.2 |
| 20260507100903 | 50 | 0 | 0.0 | 0.0 | 0.00 | 0.00 | 0.00 | 92 | 1014.3 |
| 20260507100003 | 50 | 0 | 0.0 | 0.0 | 0.00 | 0.00 | 0.00 | 91 | 1014.2 |
| 20260507095403 | 50 | 0 | 0.0 | 0.0 | 0.00 | 0.00 | 0.00 | 91 | 1014.3 |
| 20260507094503 | 50 | 0 | 0.0 | 0.0 | 0.00 | 0.00 | 0.00 | 91 | 1014.2 |
| 20260507093624 | 50 | 0 | 0.0 | 0.0 | 0.00 | 0.00 | 0.00 | 91 | 1014.3 |
| 20260507092703 | 50 | 0 | 0.0 | 0.0 | 0.00 | 0.00 | 0.00 | 91 | 1014.4 |
| 20260507091803 | 50 | 0 | 0.0 | 0.0 | 0.00 | 0.00 | 0.00 | 91 | 1014.6 |
| 20260507090903 | 50 | 0 | 0.0 | 0.0 | 0.00 | 0.00 | 0.00 | 91 | 1014.6 |
| 20260507090005 | 50 | 0 | 0.0 | 0.0 | 0.00 | 0.00 | 0.00 | 91 | 1014.7 |
| 20260507085403 | 50 | 0 | 0.0 | 0.0 | 0.00 | 0.00 | 0.00 | 91 | 1014.7 |
| 20260507084503 | 51 | 0 | 0.0 | 0.0 | 0.00 | 0.00 | 0.00 | 91 | 1014.9 |
| 20260507083603 | 51 | 0 | 0.0 | 0.0 | 0.00 | 0.00 | 0.00 | 91 | 1014.9 |
| 20260507082703 | 51 | 0 | 0.0 | 0.0 | 0.00 | 0.00 | 0.00 | 91 | 1015.0 |
| 20260507081803 | 51 | 0 | 0.0 | 0.0 | 0.00 | 0.00 | 0.00 | 90 | 1015.0 |
| 20260507080903 | 52 | 0 | 0.0 | 0.0 | 0.00 | 0.00 | 0.00 | 90 | 1015.1 |
| 20260507080003 | 52 | 0 | 0.0 | 0.0 | 0.00 | 0.00 | 0.00 | 90 | 1015.1 |
| 20260507075424 | 52 | 0 | 0.0 | 0.0 | 0.00 | 0.00 | 0.00 | 90 | 1015.0 |
| 20260507074503 | 52 | 0 | 0.0 | 0.0 | 0.00 | 0.00 | 0.00 | 90 | 1015.0 |
| 20260507073604 | 52 | 0 | 0.0 | 0.0 | 0.00 | 0.00 | 0.00 | 90 | 1015.2 |
| 20260507072703 | 52 | 0 | 0.0 | 0.0 | 0.00 | 0.00 | 0.00 | 89 | 1015.2 |
| 20260507071805 | 53 | 0 | 0.0 | 0.0 | 0.00 | 0.00 | 0.00 | 89 | 1015.3 |
| 20260507070904 | 53 | 0 | 0.0 | 0.0 | 0.00 | 0.00 | 0.00 | 89 | 1015.3 |
| 20260507070005 | 53 | 0 | 0.0 | 0.0 | 0.00 | 0.00 | 0.00 | 89 | 1015.3 |
| 20260507065403 | 53 | 0 | 0.0 | 0.0 | 0.00 | 0.00 | 0.00 | 89 | 1015.4 |
| 20260507064503 | 53 | 0 | 0.0 | 0.0 | 0.00 | 0.00 | 0.00 | 89 | 1015.5 |
| 20260507063603 | 54 | 0 | 0.0 | 0.0 | 0.00 | 0.00 | 0.00 | 88 | 1015.6 |
| 20260507062703 | 54 | 0 | 0.0 | 0.0 | 0.00 | 0.00 | 0.00 | 88 | 1015.6 |
| 20260507061803 | 54 | 0 | 0.0 | 0.0 | 0.00 | 0.00 | 0.00 | 88 | 1015.5 |
| 20260507060903 | 54 | 0 | 0.0 | 0.0 | 0.00 | 0.00 | 0.00 | 87 | 1015.5 |
| 20260507060003 | 54 | 0 | 0.0 | 0.0 | 0.00 | 0.00 | 0.00 | 87 | 1015.5 |
| 20260507055403 | 54 | 0 | 0.0 | 0.0 | 0.00 | 0.00 | 0.00 | 87 | 1015.4 |
| 20260507054503 | 55 | 0 | 0.0 | 0.0 | 0.00 | 0.00 | 0.00 | 87 | 1015.4 |
| 20260507053603 | 55 | 0 | 0.0 | 0.0 | 0.00 | 0.00 | 0.00 | 86 | 1015.4 |
| 20260507052703 | 55 | 0 | 0.0 | 0.0 | 0.00 | 0.00 | 0.00 | 86 | 1015.4 |
| 20260507051803 | 55 | 0 | 0.0 | 0.0 | 0.00 | 0.00 | 0.00 | 85 | 1015.3 |
| 20260507050903 | 56 | 0 | 0.0 | 0.0 | 0.00 | 0.00 | 0.00 | 84 | 1015.3 |
| 20260507050003 | 56 | 0 | 0.0 | 0.0 | 0.00 | 0.00 | 0.00 | 84 | 1015.3 |
| 20260507045403 | 56 | 0 | 0.0 | 0.0 | 0.00 | 0.00 | 0.00 | 84 | 1015.4 |
| 20260507044503 | 56 | 0 | 0.0 | 0.0 | 0.00 | 0.00 | 0.00 | 83 | 1015.3 |
| 20260507043603 | 57 | 0 | 0.0 | 0.0 | 0.00 | 0.00 | 0.00 | 83 | 1015.2 |
| 20260507042703 | 57 | 0 | 0.0 | 0.0 | 0.00 | 0.00 | 0.00 | 82 | 1015.2 |
| 20260507041824 | 58 | 0 | 0.0 | 0.0 | 0.00 | 0.00 | 0.00 | 81 | 1015.1 |
| 20260507040903 | 58 | 0 | 0.0 | 0.0 | 0.00 | 0.00 | 0.00 | 81 | 1015.1 |
| 20260507040003 | 58 | 0 | 0.0 | 0.0 | 0.00 | 0.00 | 0.00 | 81 | 1015.1 |
| 20260507035403 | 59 | 0 | 0.0 | 0.0 | 0.00 | 0.00 | 0.00 | 80 | 1015.1 |
| 20260507034503 | 59 | 0 | 0.0 | 0.0 | 0.00 | 0.00 | 0.00 | 80 | 1015.0 |
| 20260507033624 | 59 | 0 | 0.0 | 0.0 | 0.00 | 0.00 | 0.00 | 80 | 1014.9 |
| 20260507032703 | 60 | 0 | 0.0 | 0.0 | 0.00 | 0.00 | 0.00 | 79 | 1014.8 |
| 20260507031803 | 60 | 0 | 0.0 | 0.0 | 0.00 | 0.00 | 0.00 | 79 | 1014.8 |
| 20260507030903 | 60 | 0 | 0.0 | 0.0 | 0.00 | 0.00 | 0.00 | 78 | 1014.8 |
| 20260507030004 | 61 | 248 | 0.0 | 4.0 | 0.00 | 0.00 | 0.00 | 77 | 1014.6 |
| 20260507025403 | 61 | 251 | 0.0 | 4.0 | 0.00 | 0.00 | 0.00 | 77 | 1014.7 |
| 20260507024504 | 62 | 250 | 1.0 | 3.0 | 0.00 | 0.00 | 0.00 | 76 | 1014.6 |
| 20260507023603 | 62 | 245 | 2.0 | 4.0 | 0.00 | 0.00 | 0.00 | 74 | 1014.4 |
| 20260507022703 | 63 | 243 | 2.0 | 5.0 | 0.00 | 0.00 | 0.00 | 72 | 1014.4 |
| 20260507021824 | 64 | 244 | 2.0 | 5.0 | 0.00 | 0.00 | 0.00 | 70 | 1014.3 |
| 20260507020903 | 65 | 243 | 3.0 | 5.0 | 0.00 | 0.00 | 0.00 | 68 | 1014.3 |
| 20260507020003 | 66 | 241 | 3.0 | 6.0 | 0.00 | 0.00 | 0.00 | 66 | 1014.2 |
| 20260507015424 | 66 | 243 | 3.0 | 6.0 | 0.00 | 0.00 | 0.00 | 66 | 1014.1 |
| 20260507014503 | 67 | 251 | 2.0 | 6.0 | 0.00 | 0.00 | 0.00 | 64 | 1014.1 |
| 20260507013603 | 67 | 255 | 1.0 | 5.0 | 0.00 | 0.00 | 0.00 | 64 | 1014.1 |
| 20260507012724 | 67 | 246 | 3.0 | 7.0 | 0.00 | 0.00 | 0.00 | 63 | 1014.0 |
| 20260507011803 | 68 | 235 | 4.0 | 9.0 | 0.00 | 0.00 | 0.00 | 63 | 1014.0 |
| 20260507010903 | 68 | 248 | 3.0 | 6.0 | 0.00 | 0.00 | 0.00 | 63 | 1014.0 |
| 20260507010003 | 68 | 247 | 3.0 | 7.0 | 0.00 | 0.00 | 0.00 | 63 | 1014.0 |
| 20260507005403 | 69 | 255 | 3.0 | 8.0 | 0.00 | 0.00 | 0.00 | 61 | 1014.0 |
| 20260507004503 | 69 | 257 | 3.0 | 8.0 | 0.00 | 0.00 | 0.00 | 62 | 1013.9 |
| 20260507003603 | 69 | 243 | 4.0 | 9.0 | 0.00 | 0.00 | 0.00 | 61 | 1013.9 |
| 20260507002725 | 69 | 240 | 4.0 | 10.0 | 0.00 | 0.00 | 0.00 | 63 | 1013.8 |
| 20260507001802 | 69 | 244 | 5.0 | 9.0 | 0.00 | 0.00 | 0.00 | 62 | 1013.8 |
| 20260507000902 | 70 | 245 | 4.0 | 9.0 | 0.00 | 0.00 | 0.00 | 61 | 1013.7 |
| 20260507000023 | 70 | 250 | 4.0 | 9.0 | 0.00 | 0.00 | 0.00 | 61 | 1013.6 |
| 20260506235402 | 70 | 245 | 4.0 | 9.0 | 0.00 | 0.00 | 0.00 | 61 | 1013.6 |